Tracking 23610 objects as of 19-Sep-2021
HD Live streaming from Space Station
objects crossing your sky now

TANSUO 1

Track TANSUO 1 now!
10-day predictions
TANSUO 1 is classified as:


NORAD ID: 28220
Int'l Code: 2004-012A
Perigee: 561.2 km
Apogee: 583.7 km
Inclination: 97.9 °
Period: 96.0 minutes
Semi major axis: 6943 km
RCS: 1.6951 m2 (large)
Launch date: April 18, 2004
Source: People's Republic of China (PRC)
Launch site: Xichang Space Center, China (XSC)
aabbcc
Your satellite tracking list
Your tracking list is empty




NASA's NSSDC Master Catalog

Two Line Element Set (TLE):
1 28220U 04012A   21262.30068177  .00001310  00000-0  10872-3 0  9992
2 28220  97.9070 243.0091 0016216 162.2969 197.8823 15.00517790949395
Source of the keplerian elements: AFSPC